Weather History for KPSC

Nearest airport to NA, NA.

See history from more local stations
Change the Weather History Date:

Tuesday, October 29, 2013

  Actual Average Record
Temperature  
Mean Temperature 39 °F 47 °F  
Max Temperature 53 °F 59 °F 72 °F (2012)
Min Temperature 24 °F 35 °F 24 °F (2013)
Degree Days  
Heating Degree Days 26 18  
Month to date heating degree days 448 370  
Since 1 July heating degree days 516 481  
Cooling Degree Days 0 0  
Month to date cooling degree days 0 0  
Year to date cooling degree days 995 709  
Moisture  
Dew Point 22 °F    
Average Humidity 58    
Maximum Humidity 85    
Minimum Humidity 30    
Precipitation  
Precipitation T in 0.02 in 1.21 in (1982)
Month to date precipitation 0.04 0.61  
Year to date precipitation 4.35 6.49  
Snow  
Snow 0.00 in - - ()
Snow Depth 0.00 in    
Sea Level Pressure  
Sea Level Pressure 30.03 in    
Wind  
Wind Speed 2 mph (WNW)    
Max Wind Speed 9 mph    
Max Gust Speed 10 mph    
Visibility 10 miles    
Events Snow    
T = Trace of Precipitation, MM = Missing Value Source: NWS Daily Summary

Daily Weather History Graph

Daily Weather History Graph

Search for Another Location

Airport or City:

Trip Planner

Search our weather history database for the weather conditions in past years. The results will help you decide how hot, cold, wet, or windy it might be!

Date:

Astronomy

Oct. 29, 2013 Rise Set
Actual Time 7:33 AM PDT 5:45 PM PDT
Civil Twilight 7:02 AM PDT 6:17 PM PDT
Nautical Twilight 6:27 AM PDT 6:52 PM PDT
Astronomical Twilight 5:52 AM PDT 7:27 PM PDT
Moon 2:12 AM PDT (10/29) 3:16 PM PDT (10/29)
Length of Visible Light 11h 14m
Length of Day
10h 12m
Waning Crescent, 24% of the Moon is Illuminated
Oct 29
Waning Crescent
Nov 3
New
Nov 9
First Quarter
Nov 17
Full
Nov 25
Last Quarter

Hourly Weather History & Observations

Time (PDT) Temp. Windchill Dew Point Humidity Pressure Visibility Wind Dir Wind Speed Gust Speed Precip Events Conditions
12:53 AM 37.9 °F 35.5 °F 21.0 °F 51% 29.96 in 9.0 mi WSW 3.5 mph - 0.00 in Snow Light Snow
1:53 AM 36.0 °F - 21.0 °F 55% 29.97 in 10.0 mi Calm Calm - 0.00 in   Clear
2:53 AM 30.0 °F 23.2 °F 21.9 °F 72% 29.98 in 9.0 mi NW 6.9 mph - 0.00 in Snow Light Snow
3:53 AM 28.0 °F 20.8 °F 21.0 °F 75% 29.99 in 10.0 mi NNW 6.9 mph - 0.00 in   Clear
4:53 AM 30.0 °F - 21.0 °F 69% 30.00 in 10.0 mi Calm Calm - 0.00 in   Clear
5:53 AM 32.0 °F - 19.9 °F 61% 30.01 in 10.0 mi Calm Calm - 0.00 in   Clear
6:53 AM 26.1 °F - 19.9 °F 78% 30.03 in 10.0 mi Calm Calm - 0.00 in   Clear
7:53 AM 24.1 °F 18.2 °F 19.9 °F 84% 30.05 in 10.0 mi NW 4.6 mph - 0.00 in   Clear
8:53 AM 30.9 °F 27.5 °F 21.9 °F 69% 30.07 in 9.0 mi East 3.5 mph - 0.00 in Snow Light Snow
9:53 AM 36.0 °F - 21.0 °F 55% 30.08 in 10.0 mi Calm Calm - 0.00 in   Clear
10:53 AM 39.0 °F - 21.9 °F 50% 30.09 in 10.0 mi Calm Calm - 0.00 in   Clear
11:53 AM 44.1 °F 42.5 °F 21.9 °F 42% 30.09 in 10.0 mi WSW 3.5 mph - N/A   Clear
12:53 PM 46.9 °F - 21.9 °F 37% 30.06 in 10.0 mi WNW 5.8 mph - N/A   Clear
1:53 PM 48.9 °F - 23.0 °F 36% 30.05 in 10.0 mi Calm Calm - N/A   Clear
2:53 PM 51.1 °F - 21.0 °F 31% 30.04 in 10.0 mi NW 4.6 mph - N/A   Clear
3:53 PM 51.1 °F - 21.0 °F 31% 30.02 in 10.0 mi Calm Calm - N/A   Clear
4:53 PM 52.0 °F - 21.9 °F 31% 30.02 in 10.0 mi Calm Calm - N/A   Clear
5:53 PM 48.0 °F - 23.0 °F 37% 30.02 in 10.0 mi SSE 3.5 mph - N/A   Clear
6:53 PM 44.1 °F - 23.0 °F 43% 30.04 in 10.0 mi Calm Calm - N/A   Clear
7:53 PM 41.0 °F - 26.1 °F 55% 30.04 in 10.0 mi Calm Calm - N/A   Clear
8:53 PM 37.0 °F 33.3 °F 26.1 °F 65% 30.03 in 10.0 mi East 4.6 mph - N/A   Clear
9:53 PM 30.9 °F - 25.0 °F 79% 30.04 in 10.0 mi Calm Calm - N/A   Clear
10:53 PM 28.9 °F - 24.1 °F 82% 30.05 in 10.0 mi Calm Calm - N/A   Clear
11:53 PM 28.0 °F - 24.1 °F 85% 30.04 in 10.0 mi Calm Calm - N/A   Clear